Tracking 18823 objects as of 21-October-2017
HD Live streaming from Space Station
objects crossing your sky now

COSMOS 2251 DEB

Track COSMOS 2251 DEB now!
10-day predictions


NORAD ID: 34544
Int'l Code: 1993-036UE
Perigee: 780.5 km
Apogee: 1,368.9 km
Inclination: 73.9 °
Period: 106.6 minutes
Semi major axis: 7445 km
RCS: 0.0085 m2 (small)
Launch date: June 16, 1993
Source: Commonwealth of Independent States (former USSR) (CIS)
Launch site: PLESETSK MISSILE AND SPACE COMPLEX (PKMTR)

Note: This is SATELLITE DEBRIS
aabbcc
Your satellite tracking list
Your tracking list is empty





NASA's NSSDC Master Catalog

Two Line Element Set (TLE):
1 34544U 93036UE  17293.53005056  .00000167  00000-0  17789-3 0  9996
2 34544  73.9178 320.6861 0395111 178.5793 335.0487 13.51286370427316
Source of the keplerian elements: AFSPC